EKRAN 2 DEB, 59986

Orbit data source: Space-Track

EKRAN 2 DEB, 59986 is space debris in GEO originally from a launch on Tue, 20 Sep 1977 UTC launched from the Tyuratam Missile And Space Complex (TTMTR). Debris objects in space refer to the collection of defunct objects orbiting the Earth. Examples of debris include non-operational satellites, rocket bodies, and fragments generated from explosions, collisions, or faulty payload assembly.

Not visible in the next 10 days
Identifier
59986, 1977-092M
Orbit
GEO
Last TLE update
12 hours ago
Origin
Manufacturer
Unknown
Mission
Spacecraft
Bus & Motor
Unknown
Mass
Unknown
Launch date (UTC)
1977-09-20 (48 years ago)
Launch vehicle
Unknown
Launch site
Tyuratam Missile And Space Complex (TTMTR)
Object type
Payload
Rocket body
Debris
Shape & HBR
Unknown
Radar Cross Section
RCS unknown

Expand to show TLE details & history

TLE from 12 hours ago
0 EKRAN 2 DEB
1 59986U 77092M   25187.58337576 -.00000315  00000-0  00000-0 0  9999
2 59986   4.6608 276.0693 0040100 109.8581 206.0100  1.00941560 43038
Epoch: 2025-07-06T14:00Z
TLE epoch observation values (Epoch: 2025-07-06T14:00:03.665Z)
Latitude
-3.27639°
Longitude
97.0067°
Altitude
35,750.931 km
Speed
3.07 km/s
True Right ascension
15h 27m 18s
True Declination
-3° 16' 23"
Sunlit
Object was in daylight at epoch
Visualization orbit readout
Latitude
2.88754°
Longitude
-76.64041°
Altitude
35,456.682 km
Speed
3.092 km/s
Apparent Right ascension
03h 42m 55s
Apparent Declination
-2° 25' 50"
Sunlit
Object is in daylight
Visualization observer readout
Local Sidereal Time
14:17:31
Azimuth
327.205° NNW
Elevation
-47.809°
Doppler factor
1
Orbital elements
Apogee altitude
35,769.272 km
Perigee altitude
35,432.6 km
Semi-major axis
41,979.073 km
Eccentricity
0.00401
Inclination
4.6608°
RAAN
276.0693°
Arg. of periapsis
109.8581°
True anomaly
Unknown
Mean anomaly
206.01°
Eccentric anomaly
Unknown
Mean motion
0.25234 °/min
Orbital period
1,426.62 mins
BSTAR
0
Loading historical data...
59986 neighbors
Loading maneuver chart data...
Loading SW <> Apogee altitude chart data...
Loading historical data...
Loading historical data...
Loading historical data...
Loading historical data...
Loading historical data...
Loading historical data...
Loading historical data...

EKRAN 2 DEB Visibility

Observer location: undefined°, undefined°

EKRAN 2 DEB is likely not visible in the next few days
Span
Click to sort rows by Start time (UTC) header in descending order
Start Az.
Max El. time (UTC)
Max El. Az.
Max El.
End time (UTC)
End Az.
|